SGDC (42692 NORAD) Tracking and Keplerian Element Data

This shows tracking and keplerian element data for the satellite.

Feedback or suggestion? Click here.




ElementValue
Catalog42692
NameSGDC
Epoch Orbit2599
Epoch Day159.4958251
Epoch Year2024
RAAN48.6972
Inclination0.0214
Eccentricity0.0002087
Argument of Perigee36.5255
Mean Anonmoly274.7954
Mean Motion1.00271274
Decay Rate-2.49E-06
L11 42692U 17023B 24159.49582510 -.00000249 00000+0 00000+0 0 9995
L22 42692 0.0214 48.6972 0002087 36.5255 274.7954 1.00271274 25998



Live tracking and technical data element details for SGDC (NORAD 42692). SGDC can be tracked NOW for your location showing map with azimuth and elevation plus other details from your city location.







IsCatalogInMostPopularTable: catalog: 42692, numindb: 663
Update: records affected: 1



GetName: 42692 SGDC

Hit Count: updated at: Tue, 18 Jun 2024 00:27:47 GMT